Tracking 28052 objects as of 21-Sep-2023
HD Live streaming from Space Station
objects crossing your sky now

STARLINK-3396

Track STARLINK-3396 now!
10-day predictions
STARLINK-3396 is classified as:


NORAD ID: 51129
Int'l Code: 2022-005AB
Perigee: 546.2 km
Apogee: 547.6 km
Inclination: 53.2 °
Period: 95.4 minutes
Semi major axis: 6917 km
RCS: Unknown
Launch date: January 19, 2022
Source: United States (US)
Launch site: AIR FORCE EASTERN TEST RANGE (AFETR)
Your satellite tracking list
Your tracking list is empty




NASA's NSSDC Master Catalog

Two Line Element Set (TLE):
1 51129U 22005AB  23264.36035298 -.00000563  00000-0 -17266-4 0  9992
2 51129  53.2176  20.8586 0001029  96.6343 263.4767 15.08837447 93943
Source of the keplerian elements: AFSPC